Regional Weather Roundup
Issued by NWS Little Rock, AR

Home | Current Version | Previous Version | Graphics & Text | Print | Product List | Glossary On
Versions: 1 2 3 4 5 6 7 8 9 10 11 12 13 14 15 16 17 18 19 20 21 22 23 24 25 26 27 28 29 30 31 32 33 34 35 36 37 38 39 40 41 42 43 44 45
000
ASUS44 KLZK 181305
RWRLZK

WEATHER ROUNDUP FOR ARKANSAS
NATIONAL WEATHER SERVICE LITTLE ROCK AR
800 AM CDT MON SEP 18 2017

NOTE: "FAIR" INDICATES FEW OR NO CLOUDS BELOW 12,000 FEET WITH NO
SIGNIFICANT WEATHER AND/OR OBSTRUCTIONS TO VISIBILITY.

ARZ001-003-010-029-181400-
NORTHWEST ARKANSAS

CITY           SKY/WX    TMP DP  RH WIND       PRES   REMARKS
FAYETTEVILLE   CLOUDY    65  65 100 CALM      30.06S
FORT SMITH     CLOUDY    72  67  84 E5        30.02S
HARRISON       CLOUDY    65  64  97 SE6       30.06F
BENTONVILLE    CLOUDY    66  64  93 S5        30.07F
ROGERS         PTSUNNY   67  64  90 SE5       30.07S
SILOAM SPGS    CLOUDY    66  64  93 E3        30.06R
HIGHFILL       MOSUNNY   66  65  96 SE3       30.06S
SPRINGDALE     PTSUNNY   68  68 100 CALM      30.07F
$$

ARZ004-005-016-181400-
NORTH CENTRAL ARKANSAS

CITY           SKY/WX    TMP DP  RH WIND       PRES   REMARKS
FLIPPIN        CLOUDY    66  64  93 CALM      30.06F
MTN HOME       CLOUDY    66  65  96 CALM      30.05F
$$

ARZ040-041-181400-
WEST CENTRAL ARKANSAS

CITY           SKY/WX    TMP DP  RH WIND       PRES   REMARKS
MENA           MOSUNNY   70  68  94 CALM      30.06S
MOUNT IDA      SUNNY     68  64  87 CALM      30.03F
$$

ARZ009-017-025-026-028-181400-
NORTHEAST ARKANSAS

CITY           SKY/WX    TMP DP  RH WIND       PRES   REMARKS
CORNING        FAIR      70  70 100 CALM      30.04S
JONESBORO      MOSUNNY   73  73 100 E3        30.04S
NEWPORT        MOSUNNY   69  68  96 CALM      30.04F
BLYTHEVILLE    SUNNY     73  72  96 SE3       30.04F
NW BLYTHEVILLE SUNNY     73  70  88 CALM      30.04
$$

ARZ022-023-033-042-044-181400-
CENTRAL ARKANSAS

CITY           SKY/WX    TMP DP  RH WIND       PRES   REMARKS
LITTLE ROCK    MOSUNNY   73  72  96 CALM      30.04F
N LITTLE ROCK    N/A     73  71  92 CALM      30.03F
JACKSONVILLE   SUNNY     72  71  99 CALM      30.03F
CONWAY           N/A     72  70  94 CALM      30.02F FOG
SEARCY         SUNNY     71  70  96 CALM      30.05F
HOT SPRINGS    PTSUNNY   74  71  91 SE3       30.05S
RUSSELLVILLE   PTSUNNY   70  68  93 CALM      30.03S
CLINTON        FAIR      68  64  88 CALM      30.06S
$$

ARZ036-181400-
EAST ARKANSAS

CITY           SKY/WX    TMP DP  RH WIND       PRES   REMARKS
WEST MEMPHIS   SUNNY     73  73 100 CALM      30.04R
$$

ARZ050-053-066-070-073-181400-
SOUTHWEST ARKANSAS

CITY           SKY/WX    TMP DP  RH WIND       PRES   REMARKS
ARKADELPHIA    FAIR      69  68  96 CALM      30.04F FOG
CAMDEN         PTSUNNY   72  70  94 CALM      30.04S FOG
TEXARKANA      CLOUDY    74  73  97 CALM      30.03S
EL DORADO      PTSUNNY   71  71 100 CALM      30.04S
$$

ARZ056-057-069-181400-
SOUTHEAST ARKANSAS

CITY           SKY/WX    TMP DP  RH WIND       PRES   REMARKS
PINE BLUFF     MOSUNNY   72  71  97 CALM      30.05S FOG
STUTTGART      SUNNY     72  70  93 CALM      30.05S
MONTICELLO     MOSUNNY   73  70  90 NE3       30.05R

$$






USA.gov is the U.S. government's official web portal to all federal, state and local government web resources and services.